Location: Seattle
(47.6064°N, 122.3308°W)
Time: 00:13:58
(UTC-08:00)

Envisat - Pass Details

Date: 05 November 2020
Orbit: 764 x 766 km, 98.1° (Epoch: 03 December)

Event Time Altitude Azimuth Distance (km) Brightness Sun altitude
Rises 18:02:31 0° 194° (SSW) 3,220 6.5 -13.4°
Reaches altitude 10° 18:05:04 10° 205° (SSW) 2,299 5.9 -13.8°
Maximum altitude 18:09:30 30° 266° (W) 1,352 5.1 -14.6°
Drops below altitude 10° 18:13:58 10° 327° (NNW) 2,313 5.8 -15.3°
Sets 18:16:33 0° 338° (NNW) 3,244 6.4 -15.7°
